Log Lane Village, CO

11:11 AM MDT on July 24, 2016 (GMT -0600)
Fort Morgan

Weather History for KFMM - June, 2013

Change the Weather History Date:

Sunday, June 23, 2013

  Actual Average (KAKO) Record (KAKO)
Temperature  
Mean Temperature 66 °F 70 °F  
Max Temperature 81 °F 84 °F 105 °F (1954)
Min Temperature 52 °F 56 °F 42 °F (1947)
Degree Days  
Heating Degree Days 0    
Month to date heating degree days  
Cooling Degree Days 2    
Month to date cooling degree days  
Growing Degree Days 16 (Base 50)    
Moisture  
Dew Point 49 °F    
Average Humidity 61    
Maximum Humidity 89    
Minimum Humidity 28    
Precipitation  
Precipitation 0.00 in 0.07 in 0.76 in (2014)
Month to date precipitation 2.00  
Year to date precipitation 8.18  
Sea Level Pressure  
Sea Level Pressure 29.98 in    
Wind  
Wind Speed 10 mph (ENE)    
Max Wind Speed 28 mph    
Max Gust Speed 39 mph    
Visibility 10 miles    
Events Thunderstorm    
T = Trace of Precipitation, MM = Missing Value Source: NWS Daily Summary

Daily Weather History Graph

Daily Weather History Graph

Search for Another Location

Airport or City:

Trip Planner

Search our weather history database for the weather conditions in past years. The results will help you decide how hot, cold, wet, or windy it might be!

Date:

Astronomy

Jun. 23, 2013 Rise Set
Actual Time 5:26 AM MDT 8:29 PM MDT
Civil Twilight 4:52 AM MDT 9:02 PM MDT
Nautical Twilight 4:10 AM MDT 9:44 PM MDT
Astronomical Twilight 3:21 AM MDT 10:33 PM MDT
Moon 8:43 PM MDT (6/23) 5:46 AM MDT (6/23)
Length of Visible Light 16h 09m
Length of Day
15h 03m
Full, 100% of the Moon is Illuminated
Jun 23
Full
Jun 29
Last Quarter
Jul 8
New
Jul 15
First Quarter
Jul 22
Full

Hourly Weather History & Observations

Time (MDT) Temp. Dew Point Humidity Pressure Visibility Wind Dir Wind Speed Gust Speed Precip Events Conditions
12:15 AM 58.8 °F 49.1 °F 70% 29.88 in 10.0 mi NE 8.1 mph - N/A   Clear
12:35 AM 58.5 °F 49.1 °F 71% 29.92 in 10.0 mi NW 10.4 mph - N/A   Clear
12:55 AM 57.4 °F 48.4 °F 72% 29.94 in 10.0 mi WNW 11.5 mph - N/A   Clear
1:15 AM 57.6 °F 48.9 °F 73% 29.95 in 10.0 mi WNW 9.2 mph - N/A   Clear
1:35 AM 56.5 °F 51.6 °F 84% 29.95 in 10.0 mi NNW 11.5 mph - N/A   Clear
1:55 AM 56.5 °F 52.2 °F 85% 29.95 in 10.0 mi NNW 9.2 mph - N/A   Clear
2:15 AM 55.9 °F 52.0 °F 87% 29.96 in 10.0 mi NNW 6.9 mph - N/A   Clear
2:35 AM 54.7 °F 51.6 °F 89% 29.96 in 10.0 mi NNW 13.8 mph - N/A   Clear
2:55 AM 56.7 °F 52.0 °F 84% 29.96 in 10.0 mi North 11.5 mph - N/A   Clear
3:15 AM 55.9 °F 51.4 °F 85% 29.96 in 10.0 mi North 12.7 mph - N/A   Clear
3:35 AM 56.3 °F 50.7 °F 82% 29.97 in 10.0 mi North 12.7 mph - N/A   Clear
3:55 AM 56.5 °F 50.0 °F 79% 29.97 in 10.0 mi North 12.7 mph - N/A   Clear
4:15 AM 55.9 °F 49.3 °F 78% 29.98 in 10.0 mi North 13.8 mph - N/A   Clear
4:35 AM 55.2 °F 48.9 °F 79% 29.99 in 10.0 mi North 12.7 mph - N/A   Clear
4:55 AM 54.9 °F 48.6 °F 79% 29.99 in 10.0 mi North 11.5 mph - N/A   Clear
5:15 AM 54.5 °F 48.7 °F 81% 30.01 in 10.0 mi North 13.8 mph - N/A   Clear
5:35 AM 52.7 °F 48.4 °F 85% 30.02 in 10.0 mi North 8.1 mph - N/A   Clear
5:55 AM 52.7 °F 48.7 °F 86% 30.02 in 10.0 mi North 12.7 mph - N/A   Clear
6:15 AM 53.6 °F 48.6 °F 83% 30.02 in 10.0 mi North 12.7 mph 17.3 mph N/A   Clear
6:35 AM 55.0 °F 48.6 °F 79% 30.04 in 10.0 mi North 6.9 mph - N/A   Clear
6:55 AM 56.1 °F 48.7 °F 76% 30.04 in 10.0 mi Calm Calm - N/A   Clear
7:15 AM 57.6 °F 48.0 °F 70% 30.05 in 10.0 mi NNE 3.5 mph - N/A   Clear
7:35 AM 59.5 °F 47.5 °F 64% 30.05 in 10.0 mi North 9.2 mph - N/A   Clear
7:55 AM 60.3 °F 47.3 °F 62% 30.06 in 10.0 mi NE 5.8 mph - N/A   Clear
8:15 AM 61.5 °F 48.0 °F 61% 30.07 in 10.0 mi NNE 5.8 mph - N/A   Clear
8:35 AM 62.4 °F 48.6 °F 60% 30.07 in 10.0 mi ENE 4.6 mph - N/A   Clear
8:55 AM 63.7 °F 48.9 °F 59% 30.07 in 10.0 mi NE 4.6 mph - N/A   Clear
9:15 AM 64.4 °F 48.9 °F 57% 30.06 in 10.0 mi ESE 3.5 mph - N/A   Clear
9:35 AM 65.3 °F 48.9 °F 55% 30.06 in 10.0 mi NE 3.5 mph - N/A   Clear
9:55 AM 66.0 °F 49.6 °F 55% 30.06 in 10.0 mi SSE 3.5 mph - N/A   Clear
10:15 AM 66.9 °F 49.8 °F 54% 30.05 in 10.0 mi South 4.6 mph - N/A   Clear
10:35 AM 68.9 °F 50.7 °F 52% 30.04 in 10.0 mi SSE 4.6 mph - N/A   Clear
10:55 AM 69.3 °F 50.2 °F 51% 30.03 in 10.0 mi South 3.5 mph - N/A   Clear
11:15 AM 70.7 °F 51.4 °F 50% 30.03 in 10.0 mi SSE 5.8 mph - N/A   Clear
11:35 AM 71.6 °F 51.1 °F 48% 30.03 in 10.0 mi South 5.8 mph - N/A   Clear
11:55 AM 72.1 °F 49.8 °F 45% 30.02 in 10.0 mi SE 5.8 mph - N/A   Clear
12:15 PM 73.2 °F 46.4 °F 38% 30.00 in 10.0 mi SSE 6.9 mph - N/A   Clear
12:35 PM 74.1 °F 48.9 °F 41% 30.00 in 10.0 mi East 6.9 mph - N/A   Clear
12:55 PM 74.8 °F 46.2 °F 36% 29.99 in 10.0 mi ESE 4.6 mph - N/A   Clear
1:15 PM 76.1 °F 45.3 °F 33% 29.99 in 10.0 mi ESE 8.1 mph - N/A   Clear
1:35 PM 78.3 °F 47.7 °F 34% 29.97 in 10.0 mi East 8.1 mph - N/A   Clear
1:55 PM 80.1 °F 46.0 °F 30% 29.97 in 10.0 mi ESE 10.4 mph 18.4 mph N/A   Clear
2:15 PM 81.0 °F 46.0 °F 29% 29.96 in 10.0 mi East 9.2 mph 17.3 mph N/A   Clear
2:35 PM 80.8 °F 45.5 °F 29% 29.95 in 10.0 mi East 8.1 mph 18.4 mph N/A   Clear
2:55 PM 81.9 °F 46.0 °F 28% 29.94 in 10.0 mi ESE 8.1 mph - N/A   Clear
3:15 PM - - N/A% 29.92 in 10.0 mi East 11.5 mph - N/A   Clear
3:35 PM - - N/A% 29.90 in 10.0 mi East 15.0 mph 19.6 mph N/A   Clear
3:55 PM - - N/A% 29.89 in 10.0 mi East 18.4 mph - N/A   Clear
4:15 PM - - N/A% 29.88 in 10.0 mi East 15.0 mph 24.2 mph N/A   Clear
4:35 PM 80.2 °F 46.4 °F 30% 29.88 in 10.0 mi East 17.3 mph - N/A   Clear
4:55 PM 79.7 °F 46.8 °F 31% 29.89 in 10.0 mi ENE 11.5 mph 21.9 mph N/A   Clear
5:15 PM 79.0 °F 47.5 °F 33% 29.89 in 10.0 mi NE 15.0 mph 19.6 mph N/A   Mostly Cloudy
5:35 PM 77.7 °F 48.9 °F 36% 29.88 in 10.0 mi NE 17.3 mph 21.9 mph N/A   Overcast
5:55 PM 73.0 °F 48.2 °F 41% 29.90 in 10.0 mi NE 10.4 mph 19.6 mph N/A Thunderstorm Thunderstorm
6:15 PM 65.3 °F 50.9 °F 60% 29.97 in 2.5 mi SW 17.3 mph 28.8 mph N/A Thunderstorm Thunderstorm
6:35 PM 61.3 °F 52.9 °F 74% 29.94 in 4.0 mi ENE 13.8 mph - N/A Thunderstorm Thunderstorm
6:55 PM 60.8 °F 52.7 °F 75% 29.92 in 5.0 mi SSE 23.0 mph 31.1 mph N/A Thunderstorm Thunderstorm
7:15 PM 61.2 °F 52.2 °F 72% 29.92 in 7.0 mi East 27.6 mph 31.1 mph N/A Thunderstorm Mostly Cloudy
7:35 PM 64.9 °F 50.5 °F 60% 29.96 in 10.0 mi SE 13.8 mph 29.9 mph N/A Thunderstorm Thunderstorm
7:55 PM 64.6 °F 51.6 °F 63% 29.96 in 7.0 mi SE 27.6 mph 39.1 mph N/A Thunderstorm Thunderstorm
8:15 PM 64.6 °F 51.6 °F 63% 29.97 in 10.0 mi ESE 16.1 mph 25.3 mph N/A Thunderstorm Overcast
8:35 PM 63.1 °F 51.3 °F 65% 29.94 in 10.0 mi ESE 19.6 mph 31.1 mph N/A Thunderstorm Overcast
8:55 PM 63.7 °F 51.1 °F 64% 29.94 in 10.0 mi East 12.7 mph 23.0 mph N/A   Overcast
9:15 PM 64.2 °F 50.7 °F 61% 29.93 in 10.0 mi East 12.7 mph 24.2 mph N/A Thunderstorm Thunderstorm
9:35 PM 71.1 °F 43.9 °F 38% 29.93 in 10.0 mi North 4.6 mph 18.4 mph N/A Thunderstorm Thunderstorm
9:55 PM 72.1 °F 43.0 °F 35% 29.93 in 10.0 mi SSW 8.1 mph - N/A Thunderstorm Thunderstorm
10:15 PM 65.3 °F 51.3 °F 60% 29.94 in 10.0 mi South 6.9 mph 19.6 mph N/A Thunderstorm Thunderstorm
10:35 PM 61.9 °F 53.8 °F 75% 29.98 in 7.0 mi SSW 12.7 mph 18.4 mph N/A Thunderstorm Thunderstorm
10:55 PM 59.4 °F 52.9 °F 79% 30.01 in 5.0 mi SW 6.9 mph - N/A Thunderstorm Thunderstorm
11:15 PM 59.9 °F 52.0 °F 75% 29.99 in 10.0 mi ESE 11.5 mph - N/A Thunderstorm Thunderstorm
11:35 PM 59.4 °F 53.2 °F 80% 29.99 in 10.0 mi East 15.0 mph - N/A Thunderstorm Thunderstorm
11:55 PM 59.0 °F 53.2 °F 81% 29.96 in 10.0 mi ENE 12.7 mph 24.2 mph N/A Thunderstorm Thunderstorm